RYS7276 LCPH-EPKT

Flight info

Callsign RYS7276
Flight time 2h 49m
Altitude 36000
Route GENOS DCT PEDER DCT EVENO UM601 EXELA UN127 LMO DCT ATFIR DCT NARKA DCT KEKED DCT LENOV
Aircraft B738/M-SDE2E3FGHIRWXY/LB1

Departure

Time 2026-04-17 10:48
Airport Paphos International Airport (LCPH)

Arrival

Time 2026-04-17 13:37
Airport Katowice Wojciech Korfanty International Airport (EPKT)
Time Latitude Longitude Altitude Speed Heading
2026-04-17 10:16 34.71343 32.48738 45 ft 0 kts 155°
2026-04-17 10:40 34.71346 32.48736 45 ft 3 kts 155°
2026-04-17 10:40 34.71367 32.48724 41 ft 3 kts 155°
2026-04-17 10:40 34.71388 32.48714 42 ft 3 kts 160°
2026-04-17 10:41 34.71408 32.48704 45 ft 3 kts 136°
2026-04-17 10:41 34.71414 32.48697 42 ft 2 kts 67°
2026-04-17 10:41 34.71405 32.48673 41 ft 3 kts 67°
2026-04-17 10:41 34.71404 32.48670 42 ft 1 kts 67°
2026-04-17 10:43 34.71409 32.48682 45 ft 4 kts 64°
2026-04-17 10:43 34.71431 32.48736 45 ft 10 kts 65°
2026-04-17 10:44 34.71467 32.48833 45 ft 15 kts 65°
2026-04-17 10:44 34.71519 32.48958 45 ft 18 kts 50°
2026-04-17 10:44 34.71632 32.49003 47 ft 17 kts 354°
2026-04-17 10:44 34.71694 32.48889 46 ft 19 kts 290°
2026-04-17 10:45 34.71760 32.48697 43 ft 29 kts 290°
2026-04-17 10:45 34.71825 32.48463 45 ft 29 kts 288°
2026-04-17 10:45 34.71891 32.48243 45 ft 27 kts 290°
2026-04-17 10:45 34.71952 32.48039 45 ft 25 kts 290°
2026-04-17 10:46 34.72010 32.47844 45 ft 24 kts 290°
2026-04-17 10:46 34.72064 32.47661 46 ft 23 kts 290°
2026-04-17 10:46 34.72121 32.47480 42 ft 23 kts 290°
2026-04-17 10:46 34.72175 32.47299 44 ft 22 kts 288°
2026-04-17 10:47 34.72185 32.47167 42 ft 10 kts 274°
2026-04-17 10:47 34.72213 32.47152 42 ft 5 kts 58°
2026-04-17 10:47 34.72212 32.47188 42 ft 0 kts 109°
2026-04-17 10:47 34.72182 32.47291 41 ft 42 kts 110°
2026-04-17 10:48 34.71996 32.47899 43 ft 110 kts 110°
2026-04-17 10:48 34.71664 32.48985 49 ft 165 kts 110°
2026-04-17 10:48 34.71245 32.50390 518 ft 178 kts 109°
2026-04-17 10:48 34.70816 32.51840 1181 ft 189 kts 109°
2026-04-17 10:49 34.70313 32.53358 1868 ft 199 kts 116°
2026-04-17 10:49 34.69261 32.54495 2324 ft 215 kts 161°
2026-04-17 10:49 34.67772 32.54511 2884 ft 221 kts 195°
2026-04-17 10:49 34.66427 32.53466 3125 ft 245 kts 231°
2026-04-17 10:50 34.65735 32.51546 3531 ft 258 kts 264°
2026-04-17 10:50 34.65868 32.49302 3958 ft 272 kts 280°
2026-04-17 10:50 34.66138 32.47023 4711 ft 276 kts 278°
2026-04-17 10:50 34.66337 32.44698 5400 ft 281 kts 276°
2026-04-17 10:51 34.66482 32.42334 6211 ft 284 kts 274°
2026-04-17 10:51 34.66493 32.39947 7069 ft 278 kts 268°
2026-04-17 10:51 34.66456 32.37603 7828 ft 282 kts 271°
2026-04-17 10:51 34.66537 32.35204 8517 ft 286 kts 272°
2026-04-17 10:52 34.66830 32.32794 9145 ft 294 kts 292°
2026-04-17 10:52 34.68068 32.30851 9889 ft 295 kts 325°
2026-04-17 10:52 34.69891 32.29608 10319 ft 310 kts 331°
2026-04-17 10:52 34.71839 32.28346 10475 ft 333 kts 331°
2026-04-17 10:53 34.73940 32.26979 10697 ft 351 kts 332°
2026-04-17 10:53 34.76109 32.25562 11279 ft 357 kts 332°
2026-04-17 10:53 34.78300 32.24119 11950 ft 359 kts 331°
2026-04-17 10:53 34.80503 32.22659 12627 ft 362 kts 331°
2026-04-17 10:54 34.82724 32.21179 13277 ft 366 kts 331°
2026-04-17 10:54 34.84967 32.19680 13881 ft 370 kts 330°
2026-04-17 10:54 34.87229 32.18164 14487 ft 372 kts 330°
2026-04-17 10:54 34.89504 32.16637 15116 ft 374 kts 330°
2026-04-17 10:55 34.91760 32.15120 15722 ft 377 kts 330°
2026-04-17 10:55 34.94067 32.13568 16318 ft 380 kts 330°
2026-04-17 10:55 34.96390 32.12004 16910 ft 383 kts 330°
2026-04-17 10:55 34.98730 32.10427 17498 ft 386 kts 330°
2026-04-17 10:56 35.01086 32.08838 18082 ft 389 kts 329°
2026-04-17 10:56 35.03469 32.07230 18548 ft 393 kts 329°
2026-04-17 10:56 35.05878 32.05602 18990 ft 398 kts 329°
2026-04-17 10:56 35.08307 32.03960 19490 ft 401 kts 329°
2026-04-17 10:57 35.10757 32.02302 19955 ft 404 kts 328°
2026-04-17 10:57 35.13188 32.00655 20450 ft 407 kts 329°
2026-04-17 10:57 35.15673 31.98972 20883 ft 411 kts 328°
2026-04-17 10:57 35.18192 31.97268 21319 ft 415 kts 329°
2026-04-17 10:58 35.20712 31.95563 21878 ft 415 kts 330°
2026-04-17 10:58 35.23249 31.93845 22303 ft 419 kts 328°
2026-04-17 10:58 35.25807 31.92108 22751 ft 421 kts 329°
2026-04-17 10:58 35.28374 31.90365 23221 ft 424 kts 329°
2026-04-17 10:59 35.30964 31.88605 23589 ft 427 kts 328°
2026-04-17 10:59 35.33568 31.86832 23974 ft 429 kts 329°
2026-04-17 10:59 35.36145 31.85078 24387 ft 430 kts 328°
2026-04-17 10:59 35.38762 31.83295 24766 ft 432 kts 328°
2026-04-17 11:00 35.41391 31.81502 25133 ft 433 kts 328°
2026-04-17 11:00 35.44031 31.79699 25510 ft 435 kts 328°
2026-04-17 11:00 35.46687 31.77885 25815 ft 439 kts 328°
2026-04-17 11:00 35.49360 31.76057 26138 ft 441 kts 328°
2026-04-17 11:01 35.52045 31.74220 26503 ft 442 kts 328°
2026-04-17 11:01 35.54735 31.72378 26871 ft 444 kts 328°
2026-04-17 11:01 35.57428 31.70533 27327 ft 442 kts 328°
2026-04-17 11:01 35.60113 31.68692 27702 ft 443 kts 328°
2026-04-17 11:02 35.62777 31.66864 27967 ft 446 kts 328°
2026-04-17 11:02 35.65493 31.64998 28241 ft 449 kts 328°
2026-04-17 11:02 35.68225 31.63120 28549 ft 450 kts 328°
2026-04-17 11:02 35.70965 31.61235 28869 ft 452 kts 328°
2026-04-17 11:03 35.73714 31.59342 29165 ft 453 kts 328°
2026-04-17 11:03 35.76466 31.57446 29456 ft 455 kts 328°
2026-04-17 11:03 35.79235 31.55537 29763 ft 456 kts 328°
2026-04-17 11:03 35.81992 31.53634 30153 ft 454 kts 328°
2026-04-17 11:04 35.84692 31.51771 30678 ft 447 kts 328°
2026-04-17 11:04 35.87406 31.49897 30957 ft 448 kts 327°
2026-04-17 11:04 35.90140 31.48005 31095 ft 452 kts 327°
2026-04-17 11:04 35.92887 31.46102 31340 ft 453 kts 327°
2026-04-17 11:05 35.95621 31.44207 31712 ft 450 kts 327°
2026-04-17 11:05 35.98346 31.42319 32093 ft 448 kts 327°
2026-04-17 11:05 36.01057 31.40438 32401 ft 447 kts 327°
2026-04-17 11:05 36.03773 31.38552 32652 ft 447 kts 327°
2026-04-17 11:06 36.06482 31.36669 32921 ft 447 kts 327°
2026-04-17 11:06 36.09190 31.34785 33265 ft 445 kts 327°
2026-04-17 11:06 36.11838 31.32943 33711 ft 440 kts 327°
2026-04-17 11:06 36.14501 31.31088 33990 ft 439 kts 327°
2026-04-17 11:07 36.17167 31.29229 34165 ft 440 kts 327°
2026-04-17 11:07 36.19834 31.27366 34374 ft 440 kts 327°
2026-04-17 11:07 36.22498 31.25505 34636 ft 439 kts 326°
2026-04-17 11:07 36.25153 31.23650 34910 ft 437 kts 326°
2026-04-17 11:08 36.27805 31.21794 35009 ft 440 kts 326°
2026-04-17 11:08 36.33145 31.18052 35349 ft 440 kts 326°
2026-04-17 11:08 36.35771 31.16212 35646 ft 437 kts 326°
2026-04-17 11:09 36.38406 31.14365 35873 ft 436 kts 326°
2026-04-17 11:09 36.43730 31.10636 35869 ft 440 kts 326°
2026-04-17 11:10 36.51670 31.05054 35868 ft 434 kts 326°
2026-04-17 11:10 36.56911 31.01357 35871 ft 432 kts 326°
2026-04-17 11:11 36.62087 30.97699 35885 ft 430 kts 327°
2026-04-17 11:11 36.67288 30.94017 35879 ft 432 kts 327°
2026-04-17 11:12 36.72553 30.90282 35894 ft 439 kts 327°
2026-04-17 11:12 36.77884 30.86496 35888 ft 442 kts 327°
2026-04-17 11:13 36.83215 30.82707 35886 ft 445 kts 327°
2026-04-17 11:13 36.88593 30.78878 35892 ft 445 kts 327°
2026-04-17 11:14 36.93919 30.75083 35871 ft 435 kts 327°
2026-04-17 11:14 36.99163 30.71338 35890 ft 434 kts 327°
2026-04-17 11:15 37.04358 30.67592 35892 ft 434 kts 326°
2026-04-17 11:15 37.09595 30.63809 35898 ft 435 kts 326°
2026-04-17 11:16 37.14854 30.60039 35919 ft 436 kts 327°
2026-04-17 11:16 37.20117 30.56263 35918 ft 436 kts 327°
2026-04-17 11:17 37.25378 30.52476 35928 ft 436 kts 326°
2026-04-17 11:17 37.30612 30.48701 35936 ft 438 kts 326°
2026-04-17 11:18 37.35901 30.44879 35934 ft 438 kts 326°
2026-04-17 11:18 37.41185 30.41054 35947 ft 438 kts 326°
2026-04-17 11:19 37.46479 30.37217 35960 ft 439 kts 326°
2026-04-17 11:19 37.51778 30.33369 35950 ft 440 kts 326°
2026-04-17 11:20 37.57044 30.29539 35967 ft 440 kts 326°
2026-04-17 11:20 37.62347 30.25675 35972 ft 441 kts 326°
2026-04-17 11:21 37.67658 30.21799 35976 ft 441 kts 327°
2026-04-17 11:21 37.72968 30.17917 35962 ft 440 kts 327°
2026-04-17 11:22 37.78224 30.14069 35966 ft 439 kts 326°
2026-04-17 11:22 37.83508 30.10194 35965 ft 439 kts 327°
2026-04-17 11:23 37.88783 30.06319 35975 ft 438 kts 326°
2026-04-17 11:23 37.94047 30.02444 35981 ft 438 kts 327°
2026-04-17 11:24 37.99277 29.98589 35976 ft 438 kts 327°
2026-04-17 11:24 38.04543 29.94701 35978 ft 438 kts 327°
2026-04-17 11:25 38.09806 29.90808 35977 ft 438 kts 326°
2026-04-17 11:25 38.15061 29.86915 35979 ft 438 kts 326°
2026-04-17 11:26 38.20320 29.83012 35982 ft 438 kts 327°
2026-04-17 11:26 38.25545 29.79127 35977 ft 439 kts 327°
2026-04-17 11:27 38.30822 29.75198 35980 ft 439 kts 327°
2026-04-17 11:27 38.36103 29.71259 35979 ft 441 kts 327°
2026-04-17 11:28 38.41398 29.67302 35981 ft 442 kts 327°
2026-04-17 11:28 38.46703 29.63331 35980 ft 443 kts 327°
2026-04-17 11:29 38.51983 29.59373 35978 ft 444 kts 327°
2026-04-17 11:29 38.57310 29.55373 35978 ft 444 kts 327°
2026-04-17 11:30 38.62632 29.51368 35985 ft 445 kts 327°
2026-04-17 11:30 38.67932 29.47374 35981 ft 445 kts 327°
2026-04-17 11:31 38.73259 29.43353 35992 ft 445 kts 327°
2026-04-17 11:31 38.78592 29.39320 35988 ft 445 kts 327°
2026-04-17 11:32 38.83918 29.35284 35973 ft 445 kts 327°
2026-04-17 11:32 38.89242 29.31243 35990 ft 444 kts 327°
2026-04-17 11:33 38.94526 29.27226 35986 ft 444 kts 327°
2026-04-17 11:33 38.99838 29.23181 35975 ft 443 kts 327°
2026-04-17 11:34 39.05139 29.19136 36000 ft 443 kts 327°
2026-04-17 11:34 39.10442 29.15083 36004 ft 443 kts 327°
2026-04-17 11:35 39.15748 29.11020 35995 ft 443 kts 327°
2026-04-17 11:35 39.21011 29.06983 36005 ft 443 kts 327°
2026-04-17 11:36 39.26244 29.02962 36009 ft 444 kts 327°
2026-04-17 11:36 39.31482 28.98930 36022 ft 444 kts 327°
2026-04-17 11:37 39.36787 28.94839 36005 ft 445 kts 327°
2026-04-17 11:37 39.42098 28.90737 36014 ft 444 kts 327°
2026-04-17 11:38 39.47369 28.86658 36022 ft 444 kts 327°
2026-04-17 11:38 39.52677 28.82543 36031 ft 445 kts 327°
2026-04-17 11:39 39.57989 28.78417 36025 ft 445 kts 327°
2026-04-17 11:39 39.63306 28.74281 36048 ft 446 kts 327°
2026-04-17 11:40 39.68623 28.70136 36042 ft 446 kts 327°
2026-04-17 11:40 39.73906 28.66010 36060 ft 446 kts 326°
2026-04-17 11:41 39.79223 28.61851 36039 ft 446 kts 326°
2026-04-17 11:41 39.84532 28.57690 36057 ft 445 kts 326°
2026-04-17 11:42 39.89828 28.53533 36055 ft 444 kts 326°
2026-04-17 11:42 39.95080 28.49401 36069 ft 443 kts 326°
2026-04-17 11:43 40.00354 28.45245 36081 ft 443 kts 326°
2026-04-17 11:43 40.05624 28.41085 36086 ft 442 kts 326°
2026-04-17 11:44 40.10887 28.36922 36078 ft 442 kts 326°
2026-04-17 11:44 40.16144 28.32757 36087 ft 441 kts 326°
2026-04-17 11:45 40.21351 28.28623 36096 ft 441 kts 326°
2026-04-17 11:45 40.26596 28.24453 36097 ft 441 kts 326°
2026-04-17 11:46 40.31834 28.20279 36100 ft 440 kts 326°
2026-04-17 11:46 40.37064 28.16104 36105 ft 440 kts 326°
2026-04-17 11:47 40.42291 28.11925 36098 ft 440 kts 326°
2026-04-17 11:47 40.47478 28.07769 36115 ft 439 kts 326°
2026-04-17 11:48 40.52691 28.03585 36114 ft 439 kts 326°
2026-04-17 11:48 40.57901 27.99396 36110 ft 439 kts 326°
2026-04-17 11:49 40.63107 27.95202 36113 ft 439 kts 326°
2026-04-17 11:49 40.68276 27.91031 36112 ft 439 kts 326°
2026-04-17 11:50 40.73479 27.86823 36118 ft 439 kts 326°
2026-04-17 11:50 40.78676 27.82614 36115 ft 439 kts 326°
2026-04-17 11:51 40.83874 27.78395 36117 ft 438 kts 326°
2026-04-17 11:51 40.89072 27.74169 36114 ft 438 kts 326°
2026-04-17 11:52 40.94226 27.69971 36113 ft 438 kts 326°
2026-04-17 11:52 40.99409 27.65741 36117 ft 438 kts 326°
2026-04-17 11:53 41.04585 27.61509 36113 ft 437 kts 326°
2026-04-17 11:53 41.09761 27.57269 36108 ft 437 kts 326°
2026-04-17 11:54 41.14888 27.53061 36112 ft 436 kts 326°
2026-04-17 11:54 41.20041 27.48824 36132 ft 435 kts 326°
2026-04-17 11:55 41.25182 27.44589 36126 ft 435 kts 326°
2026-04-17 11:55 41.30314 27.40354 36128 ft 434 kts 326°
2026-04-17 11:56 41.35442 27.36115 36128 ft 433 kts 326°
2026-04-17 11:56 41.40529 27.31904 36130 ft 433 kts 326°
2026-04-17 11:57 41.45642 27.27661 36128 ft 433 kts 326°
2026-04-17 11:57 41.50763 27.23403 36129 ft 434 kts 326°
2026-04-17 11:58 41.55883 27.19138 36129 ft 434 kts 325°
2026-04-17 11:58 41.61004 27.14863 36128 ft 434 kts 325°
2026-04-17 11:59 41.66092 27.10608 36126 ft 435 kts 325°
2026-04-17 11:59 41.71218 27.06313 36135 ft 435 kts 325°
2026-04-17 12:00 41.76345 27.02009 36134 ft 435 kts 325°
2026-04-17 12:00 41.81467 26.97701 36139 ft 435 kts 325°
2026-04-17 12:01 41.86556 26.93413 36135 ft 435 kts 325°
2026-04-17 12:01 41.91675 26.89091 36139 ft 434 kts 325°
2026-04-17 12:02 41.96784 26.84770 36139 ft 434 kts 325°
2026-04-17 12:02 42.01882 26.80449 36147 ft 433 kts 325°
2026-04-17 12:03 42.06935 26.76159 36150 ft 432 kts 325°
2026-04-17 12:03 42.12008 26.71842 36154 ft 431 kts 325°
2026-04-17 12:04 42.17068 26.67529 36164 ft 430 kts 325°
2026-04-17 12:04 42.22115 26.63219 36161 ft 429 kts 325°
2026-04-17 12:05 42.27117 26.58938 36157 ft 429 kts 325°
2026-04-17 12:05 42.32153 26.54622 36158 ft 428 kts 325°
2026-04-17 12:06 42.37179 26.50304 36162 ft 428 kts 325°
2026-04-17 12:06 42.42209 26.45974 36166 ft 428 kts 325°
2026-04-17 12:07 42.47239 26.41637 36157 ft 429 kts 325°
2026-04-17 12:07 42.52273 26.37288 36159 ft 429 kts 325°
2026-04-17 12:08 42.57280 26.32954 36156 ft 430 kts 325°
2026-04-17 12:08 42.62315 26.28587 36160 ft 430 kts 325°
2026-04-17 12:09 42.67366 26.24197 36166 ft 430 kts 325°
2026-04-17 12:09 42.72410 26.19806 36159 ft 430 kts 325°
2026-04-17 12:10 42.77413 26.15442 36132 ft 430 kts 325°
2026-04-17 12:10 42.82447 26.11042 36135 ft 429 kts 324°
2026-04-17 12:11 42.87466 26.06647 36126 ft 428 kts 324°
2026-04-17 12:12 42.94980 26.00069 36122 ft 427 kts 325°
2026-04-17 12:12 42.99938 25.95711 36109 ft 426 kts 325°
2026-04-17 12:13 43.04912 25.91324 36100 ft 425 kts 325°
2026-04-17 12:13 43.09879 25.86932 36101 ft 425 kts 325°
2026-04-17 12:14 43.14849 25.82531 36102 ft 425 kts 325°
2026-04-17 12:14 43.19788 25.78150 36106 ft 426 kts 325°
2026-04-17 12:15 43.24768 25.73723 36108 ft 427 kts 325°
2026-04-17 12:15 43.29758 25.69279 36108 ft 428 kts 325°
2026-04-17 12:16 43.34761 25.64815 36105 ft 429 kts 325°
2026-04-17 12:16 43.39775 25.60332 36107 ft 430 kts 325°
2026-04-17 12:17 43.44759 25.55867 36112 ft 431 kts 325°
2026-04-17 12:17 43.49788 25.51353 36105 ft 432 kts 325°
2026-04-17 12:18 43.54816 25.46830 36112 ft 432 kts 326°
2026-04-17 12:18 43.59843 25.42299 36111 ft 432 kts 325°
2026-04-17 12:19 43.64864 25.37765 36108 ft 431 kts 325°
2026-04-17 12:19 43.69846 25.33256 36118 ft 430 kts 326°
2026-04-17 12:20 43.74852 25.28717 36110 ft 430 kts 326°
2026-04-17 12:20 43.79850 25.24175 36117 ft 429 kts 326°
2026-04-17 12:21 43.84838 25.19633 36116 ft 429 kts 326°
2026-04-17 12:21 43.89787 25.15118 36120 ft 429 kts 326°
2026-04-17 12:22 43.94765 25.10567 36121 ft 429 kts 325°
2026-04-17 12:22 43.99745 25.06005 36119 ft 429 kts 326°
2026-04-17 12:23 44.03886 25.02204 36121 ft 429 kts 326°
2026-04-17 12:23 44.08875 24.97616 36124 ft 430 kts 326°
2026-04-17 12:24 44.14677 24.92269 36123 ft 431 kts 325°
2026-04-17 12:24 44.18870 24.88397 36123 ft 432 kts 326°
2026-04-17 12:25 44.23854 24.83786 36128 ft 433 kts 326°
2026-04-17 12:25 44.28885 24.79121 36131 ft 435 kts 326°
2026-04-17 12:26 44.33937 24.74428 36129 ft 437 kts 326°
2026-04-17 12:26 44.39007 24.69707 36126 ft 438 kts 326°
2026-04-17 12:27 44.44054 24.64999 36126 ft 440 kts 326°
2026-04-17 12:27 44.49148 24.60236 36122 ft 441 kts 327°
2026-04-17 12:28 44.54249 24.55456 36126 ft 441 kts 327°
2026-04-17 12:28 44.59354 24.50662 36126 ft 442 kts 327°
2026-04-17 12:29 44.64463 24.45856 36123 ft 442 kts 327°
2026-04-17 12:29 44.69530 24.41086 36124 ft 441 kts 327°
2026-04-17 12:30 44.74617 24.36280 36127 ft 440 kts 327°
2026-04-17 12:30 44.79698 24.31468 36122 ft 440 kts 327°
2026-04-17 12:31 44.84761 24.26661 36120 ft 439 kts 327°
2026-04-17 12:31 44.89813 24.21855 36124 ft 438 kts 327°
2026-04-17 12:32 44.94825 24.17077 36124 ft 437 kts 327°
2026-04-17 12:32 44.99864 24.12264 36128 ft 437 kts 326°
2026-04-17 12:33 45.04894 24.07448 36131 ft 437 kts 326°
2026-04-17 12:33 45.09922 24.02623 36129 ft 436 kts 326°
2026-04-17 12:34 45.14910 23.97828 36135 ft 436 kts 326°
2026-04-17 12:34 45.19929 23.92991 36134 ft 436 kts 326°
2026-04-17 12:35 45.24944 23.88149 36145 ft 436 kts 326°
2026-04-17 12:35 45.29960 23.83294 36136 ft 436 kts 326°
2026-04-17 12:37 45.49893 23.63897 36140 ft 434 kts 326°
2026-04-17 12:38 45.54863 23.59035 36149 ft 433 kts 325°
2026-04-17 12:38 45.59787 23.54206 36137 ft 432 kts 325°
2026-04-17 12:39 45.64735 23.49344 36137 ft 432 kts 325°
2026-04-17 12:39 45.69677 23.44477 36131 ft 431 kts 325°
2026-04-17 12:40 45.74610 23.39608 36126 ft 431 kts 325°
2026-04-17 12:40 45.79545 23.34727 36143 ft 431 kts 324°
2026-04-17 12:41 45.84443 23.29871 36127 ft 431 kts 324°
2026-04-17 12:41 45.89373 23.24974 36123 ft 431 kts 324°
2026-04-17 12:42 45.94296 23.20073 36126 ft 430 kts 324°
2026-04-17 12:42 45.99213 23.15166 36123 ft 430 kts 324°
2026-04-17 12:43 46.04092 23.10287 36128 ft 430 kts 324°
2026-04-17 12:43 46.08994 23.05375 36133 ft 429 kts 324°
2026-04-17 12:44 46.13894 23.00452 36132 ft 429 kts 324°
2026-04-17 12:44 46.18785 22.95528 36133 ft 428 kts 323°
2026-04-17 12:45 46.23666 22.90593 36141 ft 428 kts 323°
2026-04-17 12:45 46.28508 22.85703 36139 ft 427 kts 323°
2026-04-17 12:46 46.33379 22.80771 36153 ft 427 kts 323°
2026-04-17 12:46 46.38240 22.75834 36144 ft 426 kts 323°
2026-04-17 12:47 46.43093 22.70895 36146 ft 426 kts 323°
2026-04-17 12:47 46.47903 22.65987 36153 ft 425 kts 323°
2026-04-17 12:48 46.52740 22.61041 36144 ft 425 kts 323°
2026-04-17 12:48 46.57576 22.56085 36149 ft 425 kts 323°
2026-04-17 12:49 46.62404 22.51127 36144 ft 425 kts 323°
2026-04-17 12:49 46.67227 22.46162 36143 ft 425 kts 323°
2026-04-17 12:50 46.72015 22.41224 36139 ft 424 kts 322°
2026-04-17 12:50 46.76833 22.36242 36142 ft 424 kts 322°
2026-04-17 12:51 46.81648 22.31253 36139 ft 425 kts 322°
2026-04-17 12:51 46.86465 22.26249 36131 ft 425 kts 322°
2026-04-17 12:52 46.91249 22.21269 36130 ft 425 kts 322°
2026-04-17 12:52 46.96065 22.16244 36131 ft 425 kts 322°
2026-04-17 12:53 47.00878 22.11211 36130 ft 425 kts 322°
2026-04-17 12:53 47.05681 22.06176 36129 ft 424 kts 321°
2026-04-17 12:54 47.10474 22.01138 36132 ft 423 kts 321°
2026-04-17 12:54 47.15256 21.96191 36127 ft 425 kts 327°
2026-04-17 12:55 47.20611 21.92417 36130 ft 427 kts 332°
2026-04-17 12:55 47.26022 21.88817 36129 ft 427 kts 332°
2026-04-17 12:56 47.31408 21.85166 36130 ft 426 kts 331°
2026-04-17 12:56 47.36731 21.81494 36130 ft 425 kts 331°
2026-04-17 12:57 47.42081 21.77788 36147 ft 424 kts 330°
2026-04-17 12:57 47.47423 21.74076 36137 ft 424 kts 330°
2026-04-17 12:58 47.52765 21.70363 36129 ft 424 kts 330°
2026-04-17 12:58 47.58067 21.66679 36131 ft 423 kts 330°
2026-04-17 12:59 47.63390 21.62964 36135 ft 423 kts 330°
2026-04-17 12:59 47.68715 21.59240 36148 ft 423 kts 330°
2026-04-17 13:00 47.74035 21.55507 36143 ft 423 kts 330°
2026-04-17 13:00 47.79352 21.51767 36143 ft 423 kts 329°
2026-04-17 13:01 47.84630 21.48046 36142 ft 423 kts 329°
2026-04-17 13:01 47.89942 21.44293 36138 ft 422 kts 329°
2026-04-17 13:02 47.95242 21.40539 36166 ft 422 kts 329°
2026-04-17 13:02 48.00545 21.36775 36145 ft 422 kts 329°
2026-04-17 13:03 48.05827 21.32982 36149 ft 421 kts 329°
2026-04-17 13:03 48.11079 21.29225 36149 ft 421 kts 329°
2026-04-17 13:04 48.16370 21.25451 36149 ft 421 kts 329°
2026-04-17 13:04 48.21660 21.21685 36169 ft 421 kts 329°
2026-04-17 13:05 48.26947 21.17899 36157 ft 421 kts 329°
2026-04-17 13:05 48.32194 21.14122 36153 ft 421 kts 329°
2026-04-17 13:06 48.37466 21.10318 36166 ft 420 kts 328°
2026-04-17 13:06 48.42739 21.06505 36153 ft 421 kts 328°
2026-04-17 13:07 48.48009 21.02686 36179 ft 420 kts 328°
2026-04-17 13:07 48.53279 20.98858 36161 ft 420 kts 328°
2026-04-17 13:08 48.58500 20.95058 36155 ft 416 kts 328°
2026-04-17 13:08 48.61080 20.93183 36041 ft 408 kts 328°
2026-04-17 13:08 48.63618 20.91335 35763 ft 400 kts 328°
2026-04-17 13:08 48.66110 20.89517 35379 ft 396 kts 328°
2026-04-17 13:09 48.68581 20.87709 35040 ft 393 kts 328°
2026-04-17 13:09 48.71032 20.85911 34668 ft 390 kts 327°
2026-04-17 13:09 48.73470 20.84121 34288 ft 388 kts 327°
2026-04-17 13:09 48.75889 20.82344 33889 ft 386 kts 327°
2026-04-17 13:10 48.78265 20.80595 33477 ft 384 kts 327°
2026-04-17 13:10 48.80658 20.78834 33090 ft 381 kts 327°
2026-04-17 13:10 48.83034 20.77085 32713 ft 378 kts 328°
2026-04-17 13:10 48.85389 20.75350 32337 ft 375 kts 328°
2026-04-17 13:11 48.87730 20.73623 31967 ft 372 kts 328°
2026-04-17 13:11 48.90051 20.71907 31613 ft 370 kts 328°
2026-04-17 13:11 48.92352 20.70203 31253 ft 367 kts 328°
2026-04-17 13:11 48.94642 20.68498 30895 ft 365 kts 328°
2026-04-17 13:12 48.96916 20.66806 30546 ft 363 kts 328°
2026-04-17 13:12 49.01407 20.63467 29801 ft 360 kts 328°
2026-04-17 13:12 49.03649 20.61801 29387 ft 357 kts 328°
2026-04-17 13:13 49.05877 20.60144 28991 ft 355 kts 328°
2026-04-17 13:13 49.08084 20.58500 28609 ft 352 kts 328°
2026-04-17 13:13 49.10280 20.56863 28244 ft 349 kts 329°
2026-04-17 13:13 49.12451 20.55243 27883 ft 346 kts 329°
2026-04-17 13:14 49.14606 20.53634 27527 ft 344 kts 329°
2026-04-17 13:14 49.16752 20.52029 27164 ft 342 kts 329°
2026-04-17 13:14 49.18849 20.50460 26825 ft 339 kts 329°
2026-04-17 13:14 49.20961 20.48877 26474 ft 337 kts 329°
2026-04-17 13:15 49.23064 20.47300 26124 ft 335 kts 329°
2026-04-17 13:15 49.25150 20.45734 25780 ft 333 kts 329°
2026-04-17 13:15 49.27227 20.44173 25441 ft 331 kts 329°
2026-04-17 13:15 49.29292 20.42621 25091 ft 330 kts 329°
2026-04-17 13:16 49.31345 20.41075 24757 ft 328 kts 329°
2026-04-17 13:16 49.33388 20.39535 24414 ft 326 kts 329°
2026-04-17 13:16 49.35427 20.38002 24068 ft 326 kts 330°
2026-04-17 13:16 49.37436 20.36503 23730 ft 325 kts 330°
2026-04-17 13:17 49.39464 20.34979 23314 ft 324 kts 330°
2026-04-17 13:17 49.41482 20.33456 22964 ft 322 kts 330°
2026-04-17 13:17 49.43487 20.31939 22617 ft 320 kts 330°
2026-04-17 13:17 49.45481 20.30424 22272 ft 319 kts 330°
2026-04-17 13:18 49.47458 20.28918 21935 ft 317 kts 330°
2026-04-17 13:18 49.49428 20.27418 21605 ft 315 kts 330°
2026-04-17 13:18 49.51391 20.25925 21273 ft 314 kts 330°
2026-04-17 13:18 49.53342 20.24441 20944 ft 312 kts 330°
2026-04-17 13:19 49.55256 20.22984 20628 ft 311 kts 330°
2026-04-17 13:19 49.57188 20.21511 20292 ft 309 kts 330°
2026-04-17 13:19 49.59114 20.20043 19968 ft 308 kts 330°
2026-04-17 13:19 49.61029 20.18582 19651 ft 307 kts 330°
2026-04-17 13:20 49.62945 20.17118 19323 ft 307 kts 330°
2026-04-17 13:20 49.64859 20.15654 18982 ft 307 kts 330°
2026-04-17 13:20 49.66773 20.14189 18657 ft 307 kts 330°
2026-04-17 13:20 49.68689 20.12726 18289 ft 308 kts 330°
2026-04-17 13:21 49.70607 20.11262 17936 ft 307 kts 330°
2026-04-17 13:21 49.72490 20.09822 17606 ft 305 kts 330°
2026-04-17 13:21 49.74389 20.08365 17272 ft 304 kts 330°
2026-04-17 13:21 49.76277 20.06908 16947 ft 302 kts 330°
2026-04-17 13:22 49.78152 20.05461 16616 ft 300 kts 330°
2026-04-17 13:22 49.80020 20.04022 16311 ft 299 kts 330°
2026-04-17 13:22 49.81882 20.02587 15989 ft 299 kts 330°
2026-04-17 13:22 49.83740 20.01153 15686 ft 298 kts 330°
2026-04-17 13:23 49.85591 19.99723 15365 ft 297 kts 330°
2026-04-17 13:23 49.87442 19.98294 15055 ft 296 kts 331°
2026-04-17 13:23 49.89283 19.96870 14735 ft 296 kts 331°
2026-04-17 13:23 49.91099 19.95465 14428 ft 295 kts 331°
2026-04-17 13:24 49.92933 19.94044 14107 ft 294 kts 331°
2026-04-17 13:24 49.94763 19.92626 13781 ft 294 kts 331°
2026-04-17 13:24 49.96592 19.91207 13440 ft 293 kts 331°
2026-04-17 13:24 49.98410 19.89796 13112 ft 292 kts 331°
2026-04-17 13:25 50.00226 19.88385 12789 ft 291 kts 331°
2026-04-17 13:25 50.02028 19.86983 12478 ft 289 kts 331°
2026-04-17 13:25 50.03822 19.85587 12175 ft 288 kts 331°
2026-04-17 13:25 50.05612 19.84193 11864 ft 287 kts 332°
2026-04-17 13:26 50.07392 19.82811 11566 ft 286 kts 332°
2026-04-17 13:26 50.09150 19.81444 11267 ft 285 kts 332°
2026-04-17 13:26 50.10922 19.80062 10979 ft 285 kts 332°
2026-04-17 13:26 50.12694 19.78678 10673 ft 285 kts 332°
2026-04-17 13:27 50.14464 19.77294 10368 ft 285 kts 332°
2026-04-17 13:27 50.16217 19.75922 10226 ft 278 kts 332°
2026-04-17 13:27 50.17934 19.74577 10106 ft 272 kts 332°
2026-04-17 13:27 50.19590 19.73280 10038 ft 263 kts 332°
2026-04-17 13:28 50.21273 19.71958 9474 ft 273 kts 332°
2026-04-17 13:28 50.22975 19.70620 9076 ft 273 kts 332°
2026-04-17 13:28 50.24656 19.69298 8773 ft 268 kts 332°
2026-04-17 13:28 50.26280 19.68020 8478 ft 262 kts 331°
2026-04-17 13:29 50.27891 19.66753 8204 ft 256 kts 331°
2026-04-17 13:29 50.29469 19.65509 7941 ft 253 kts 331°
2026-04-17 13:29 50.31039 19.64267 7691 ft 254 kts 331°
2026-04-17 13:29 50.32621 19.63009 7420 ft 256 kts 331°
2026-04-17 13:30 50.34213 19.61750 7158 ft 257 kts 332°
2026-04-17 13:30 50.35819 19.60480 6885 ft 259 kts 332°
2026-04-17 13:30 50.37435 19.59201 6616 ft 261 kts 332°
2026-04-17 13:30 50.39043 19.57927 6348 ft 263 kts 332°
2026-04-17 13:31 50.40685 19.56626 6035 ft 266 kts 332°
2026-04-17 13:31 50.42357 19.55304 5734 ft 268 kts 332°
2026-04-17 13:31 50.44019 19.53986 5547 ft 266 kts 332°
2026-04-17 13:31 50.45643 19.52696 5410 ft 256 kts 331°
2026-04-17 13:32 50.47005 19.51046 5246 ft 245 kts 303°
2026-04-17 13:32 50.47486 19.48574 5064 ft 237 kts 272°
2026-04-17 13:32 50.47502 19.45978 4890 ft 237 kts 271°
2026-04-17 13:32 50.47518 19.43404 4750 ft 236 kts 271°
2026-04-17 13:33 50.47529 19.40845 4482 ft 238 kts 271°
2026-04-17 13:33 50.47536 19.38296 4256 ft 227 kts 270°
2026-04-17 13:33 50.47541 19.35877 3998 ft 216 kts 270°
2026-04-17 13:33 50.47546 19.33584 3777 ft 206 kts 271°
2026-04-17 13:34 50.47550 19.31376 3557 ft 198 kts 271°
2026-04-17 13:34 50.47555 19.29250 3348 ft 190 kts 271°
2026-04-17 13:34 50.47559 19.27218 3112 ft 183 kts 271°
2026-04-17 13:34 50.47566 19.25317 2991 ft 167 kts 271°
2026-04-17 13:35 50.47578 19.23491 2753 ft 164 kts 271°
2026-04-17 13:35 50.47582 19.21768 2555 ft 153 kts 271°
2026-04-17 13:35 50.47583 19.20164 2382 ft 148 kts 271°
2026-04-17 13:35 50.47584 19.18544 2140 ft 147 kts 271°
2026-04-17 13:36 50.47583 19.16926 1960 ft 150 kts 271°
2026-04-17 13:36 50.47587 19.15288 1735 ft 148 kts 272°
2026-04-17 13:36 50.47600 19.13678 1511 ft 146 kts 269°
2026-04-17 13:36 50.47597 19.12084 1270 ft 146 kts 267°
2026-04-17 13:37 50.47593 19.10478 1072 ft 149 kts 269°
2026-04-17 13:37 50.47595 19.08887 999 ft 136 kts 268°
2026-04-17 13:37 50.47600 19.07659 1000 ft 88 kts 270°
2026-04-17 13:37 50.47604 19.06971 998 ft 47 kts 270°
2026-04-17 13:38 50.47604 19.06484 995 ft 43 kts 270°
2026-04-17 13:38 50.47604 19.06094 994 ft 18 kts 270°
2026-04-17 13:38 50.47528 19.05979 992 ft 18 kts 178°
2026-04-17 13:38 50.47428 19.06063 991 ft 18 kts 97°
2026-04-17 13:39 50.47430 19.06260 993 ft 18 kts 90°
2026-04-17 13:39 50.47428 19.06450 995 ft 17 kts 90°
2026-04-17 13:39 50.47399 19.06616 1000 ft 16 kts 152°
2026-04-17 13:39 50.47288 19.06625 1000 ft 16 kts 179°
2026-04-17 13:40 50.47237 19.06750 997 ft 16 kts 90°
2026-04-17 13:40 50.47236 19.06927 997 ft 16 kts 90°
2026-04-17 13:40 50.47236 19.07094 997 ft 11 kts 89°
2026-04-17 13:40 50.47234 19.07193 1002 ft 5 kts 98°
2026-04-17 13:41 50.47197 19.07211 997 ft 7 kts 181°
2026-04-17 13:41 50.47183 19.07212 1000 ft 1 kts 179°
2026-04-17 13:41 50.47182 19.07212 1000 ft 0 kts 179°